FW0655 Weather Reports


Display with metric or nautical units.
time (UTC)temp
F
wind
direction
speed
MPH
gust
MPH
rain 1hr
in
rain 24hr
in
rain mn
in
humidity
%
barometer
mb
20260509044555 45 30 0.0 4.0 0.00 0.00 0.00 80 1011.1
20260509043054 45 188 0.0 2.0 0.00 0.00 0.00 80 1011.1
20260509041555 45 188 0.0 2.0 0.00 0.00 0.00 80 1011.3
20260509040111 44 188 1.0 2.0 0.00 0.00 0.00 78 1011.2
20260509034550 44 188 0.0 1.0 0.00 0.00 0.00 77 1011.4
20260509033047 44 188 1.0 2.0 0.00 0.00 0.00 76 1011.3
20260509031547 44 188 1.0 2.0 0.00 0.00 0.00 75 1011.2
20260509030048 45 188 0.0 2.0 0.00 0.00 0.00 74 1011.2
20260509024548 45 188 1.0 2.0 0.00 0.00 0.00 73 1011.3
20260509023046 46 188 0.0 2.0 0.00 0.00 0.00 71 1011.4
20260509021546 47 188 1.0 2.0 0.00 0.00 0.00 69 1011.2
20260509020044 48 188 0.0 1.0 0.00 0.00 0.00 67 1011.3
20260509014544 49 188 0.0 2.0 0.00 0.00 0.00 65 1011.2
20260509013047 51 188 1.0 3.0 0.00 0.00 0.00 63 1011.1
20260509011554 54 190 2.0 4.0 0.00 0.00 0.00 59 1010.8
20260509010045 53 187 0.0 3.0 0.00 0.00 0.00 62 1010.7
20260509004551 52 193 3.0 5.0 0.00 0.00 0.00 61 1010.5
20260509003040 52 192 3.0 6.0 0.00 0.00 0.00 57 1010.3
20260509001539 55 40 1.0 2.0 0.00 0.00 0.00 55 1010.1
20260509000039 58 40 0.0 1.0 0.00 0.00 0.00 51 1009.8
20260508234537 60 40 0.0 1.0 0.00 0.00 0.00 44 1009.8
20260508233036 57 40 1.0 4.0 0.00 0.00 0.00 46 1009.7
20260508231536 56 65 1.0 4.0 0.00 0.00 0.00 46 1009.5
20260508230036 55 32 2.0 5.0 0.00 0.00 0.00 47 1009.6
20260508224534 57 28 3.0 4.0 0.00 0.00 0.00 44 1009.5
20260508223041 57 211 0.0 3.0 0.00 0.00 0.00 48 1009.6
20260508221531 56 325 1.0 3.0 0.00 0.00 0.00 43 1009.6
20260508220033 56 230 2.0 5.0 0.00 0.00 0.00 44 1009.5
20260508214538 57 290 2.0 8.0 0.00 0.00 0.00 45 1009.6
20260508213034 57 170 3.0 7.0 0.00 0.00 0.00 44 1009.8
20260508211530 56 311 2.0 4.0 0.00 0.00 0.00 46 1009.8
20260508210026 56 244 1.0 4.0 0.00 0.00 0.00 45 1009.9
20260508204531 57 23 5.0 13.0 0.00 0.00 0.00 44 1010.0
20260508203023 55 20 1.0 8.0 0.00 0.00 0.00 48 1010.2
20260508201524 56 348 1.0 4.0 0.00 0.00 0.00 45 1010.3
20260508200021 55 292 5.0 11.0 0.00 0.00 0.00 45 1010.4
20260508194520 56 306 1.0 8.0 0.00 0.00 0.00 44 1010.6
20260508193018 56 296 7.0 11.0 0.00 0.00 0.00 44 1010.8
20260508191516 55 286 5.0 9.0 0.00 0.00 0.00 44 1010.8
20260508190019 54 194 2.0 13.0 0.00 0.00 0.00 48 1011.1
20260508184510 53 276 2.0 8.0 0.00 0.00 0.00 51 1011.6
20260508183011 53 317 2.0 9.0 0.00 0.00 0.00 52 1011.8
20260508181507 52 270 2.0 5.0 0.00 0.00 0.00 54 1012.1
20260508180015 52 289 3.0 9.0 0.00 0.00 0.00 54 1012.0
20260508174504 50 204 2.0 9.0 0.00 0.00 0.00 65 1012.2
20260508173101 49 289 3.0 10.0 0.00 0.00 0.00 65 1012.3
20260508171601 50 302 1.0 7.0 0.00 0.00 0.00 66 1012.3
20260508170056 48 346 1.0 5.0 0.00 0.00 0.00 69 1012.4
20260508164555 48 343 2.0 4.0 0.00 0.00 0.00 71 1012.5
20260508163053 45 5 2.0 9.0 0.00 0.00 0.00 76 1012.6
20260508161553 45 23 4.0 10.0 0.00 0.00 0.00 76 1012.7
20260508160123 45 42 5.0 12.0 0.00 0.00 0.00 73 1012.5
20260508154556 45 5 3.0 6.0 0.00 0.00 0.00 75 1012.4
20260508153050 45 360 3.0 8.0 0.00 0.00 0.00 74 1012.2
20260508151551 46 175 1.0 3.0 0.00 0.00 0.00 71 1011.8
20260508150047 45 190 2.0 4.0 0.00 0.00 0.00 73 1012.0
20260508144547 45 203 0.0 4.0 0.00 0.00 0.00 74 1012.0
20260508143058 44 203 0.0 4.0 0.00 0.00 0.00 75 1012.2
20260508141553 44 203 3.0 6.0 0.00 0.00 0.00 76 1012.1
20260508140048 44 297 1.0 4.0 0.00 0.00 0.00 76 1012.2
20260508134544 45 290 2.0 4.0 0.00 0.00 0.00 77 1012.0
20260508133053 45 208 1.0 3.0 0.00 0.00 0.00 78 1011.9
20260508131541 44 208 0.0 2.0 0.00 0.00 0.00 81 1011.5
20260508130045 43 196 0.0 1.0 0.00 0.00 0.00 82 1011.4
20260508124540 42 196 0.0 3.0 0.00 0.00 0.00 84 1011.3
20260508123039 42 202 0.0 2.0 0.00 0.00 0.00 86 1011.4
20260508121556 41 202 2.0 4.0 0.00 0.00 0.00 87 1011.6
20260508120039 41 205 0.0 1.0 0.00 0.00 0.00 88 1011.6
20260508114537 40 205 0.0 3.0 0.00 0.00 0.00 88 1011.4
20260508113036 40 205 0.0 1.0 0.00 0.00 0.00 88 1011.8
20260508111535 39 205 0.0 1.0 0.00 0.00 0.00 88 1011.7
20260508110045 39 205 0.0 2.0 0.00 0.00 0.00 88 1011.8
20260508104534 38 205 0.0 2.0 0.00 0.00 0.00 88 1011.5
20260508103037 38 205 0.0 0.0 0.00 0.00 0.00 88 1011.7
20260508101536 37 205 0.0 2.0 0.00 0.00 0.00 88 1011.8
20260508100034 37 205 0.0 2.0 0.00 0.00 0.00 87 1011.6
20260508094536 38 205 1.0 2.0 0.00 0.00 0.00 87 1011.8
20260508093031 38 205 2.0 3.0 0.00 0.00 0.00 86 1011.8
20260508091528 38 205 0.0 2.0 0.00 0.00 0.00 86 1011.5
20260508090027 38 205 0.0 2.0 0.00 0.00 0.00 85 1011.4
20260508084525 39 205 1.0 2.0 0.00 0.00 0.00 85 1011.3
20260508083104 39 205 0.0 2.0 0.00 0.00 0.00 84 1011.1
20260508081518 40 205 0.0 1.0 0.00 0.00 0.00 83 1011.1
20260508080020 40 205 0.0 2.0 0.00 0.00 0.00 83 1011.1
20260508074514 41 205 0.0 3.0 0.00 0.00 0.00 83 1010.6
20260508073010 42 205 0.0 2.0 0.00 0.00 0.00 82 1010.9
20260508071508 42 205 0.0 2.0 0.00 0.00 0.00 82 1010.9
20260508070009 42 205 1.0 3.0 0.00 0.00 0.00 81 1010.9
20260508064517 42 205 0.0 2.0 0.00 0.00 0.00 80 1010.8
20260508063005 42 205 0.0 2.0 0.00 0.00 0.00 79 1010.6
20260508061502 42 205 0.0 3.0 0.00 0.00 0.00 77 1010.6
20260508060110 43 205 0.0 3.0 0.00 0.00 0.00 76 1010.4
20260508054604 43 205 0.0 1.0 0.00 0.00 0.00 75 1010.4
20260508053102 44 205 0.0 2.0 0.00 0.00 0.00 74 1010.5
20260508051553 44 205 1.0 3.0 0.00 0.00 0.00 74 1010.6
20260508050052 45 207 2.0 3.0 0.00 0.00 0.00 72 1010.8